Погода в Куйбышевском Затоне

Россия / Республика Татарстан     55°09′23″N   49°10′32″E
темп.,
°C
ветер,
м/с
пор.,
м/с
влажн.,
%
обл.,
%
осадки,
мм/ч
давл.,
гПа
погр.,
м
1 июля, пт
пт100:00+10с6888100 0.0 1011398
03:00+8ссв6987100 0.0 1012405
06:00+9ссв5687100 0.1 1012521
09:00+11св667475 0.4 1013979
12:00+14всв6765100 0.2 10141247
15:00+16св786232 0.2 10131326
18:00+17св586987 0.1 1014480
21:00+14ссв712861 0.1 1014383
2 июля, сб
сб200:00+13св712916 0.1 1014432
03:00+12св610919 0.1 1015312
06:00+14св698413 0.0 1015326
09:00+17св78695 0.0 1015643
12:00+19св5763100 0.0 1015798
15:00+20св566065 0.0 1014905
18:00+19ссв57655 0.0 1013227
21:00+16ссв337834 0.0 101323
3 июля, вс
вс300:00+15с447690 0.0 101270
03:00+14с47903 0.0 1011160
06:00+16ссв458421 0.0 1012253
09:00+18ссв56720 0.0 1011480
12:00+20св45655 0.1 1011839
15:00+20ссв566855 0.4 1011604
18:00+19ссв81175100 0.1 1011605
21:00+15ссв5108589 0.1 1013338
4 июля, пн
пн400:00+13с57870 0.0 1013144
03:00+12с610912 0.0 1013222
06:00+14ссв711800 0.0 1013424
09:00+18св686454 0.0 1014911
12:00+20ссв576277 0.1 10141048
15:00+19ссв5965100 0.3 1014415
18:00+19с46678 0.0 1015270
21:00+18ссз3467100 0.0 101569
5 июля, вт
вт500:00+15ссз45745 0.0 101684
03:00+14сз447455 0.0 101670
06:00+16сз4672100 0.0 1017161
09:00+20ссз456397 0.0 1016334
12:00+23ссз355594 0.0 1016872
15:00+24сз55525 0.0 10151091
18:00+23з466614 0.0 1015134
21:00+19зсз467645 0.0 101573